Heute – Wetterdaten der letzten 3 Stunden im 5 Min. Intervall

Wetterdaten der letzten 3 Stunden im 5 Min. Intervall
Datum Aussentemperatur Luftdruck Luftfeuchtigkeit Windstärke Regen
18.08.18, 13:55 22.9 °C 1022.6 hPa 52 % 10.1 km/h 0.0 mm
18.08.18, 13:50 22.7 °C 1022.6 hPa 52 % 3.2 km/h 0.0 mm
18.08.18, 13:45 22.6 °C 1022.6 hPa 53 % 8.6 km/h 0.0 mm
18.08.18, 13:40 22.6 °C 1022.7 hPa 52 % 5.0 km/h 0.0 mm
18.08.18, 13:35 22.6 °C 1022.7 hPa 53 % 8.6 km/h 0.0 mm
18.08.18, 13:30 22.4 °C 1022.6 hPa 53 % 3.2 km/h 0.0 mm
18.08.18, 13:25 22.4 °C 1022.6 hPa 54 % 5.0 km/h 0.0 mm
18.08.18, 13:20 22.2 °C 1022.7 hPa 53 % 0.0 km/h 0.0 mm
18.08.18, 13:15 22.3 °C 1022.8 hPa 53 % 1.8 km/h 0.0 mm
18.08.18, 13:10 22.2 °C 1022.7 hPa 54 % 5.0 km/h 0.0 mm
18.08.18, 13:05 22.1 °C 1022.7 hPa 54 % 1.8 km/h 0.0 mm
18.08.18, 12:55 22.0 °C 1022.7 hPa 54 % 5.0 km/h 0.0 mm
18.08.18, 12:50 22.1 °C 1022.8 hPa 55 % 3.2 km/h 0.0 mm
18.08.18, 12:45 21.9 °C 1022.8 hPa 55 % 3.2 km/h 0.0 mm
18.08.18, 12:40 21.8 °C 1022.9 hPa 55 % 6.8 km/h 0.0 mm
18.08.18, 12:35 21.7 °C 1023.0 hPa 55 % 1.8 km/h 0.0 mm
18.08.18, 12:30 21.6 °C 1022.9 hPa 56 % 1.8 km/h 0.0 mm
18.08.18, 12:25 21.6 °C 1023.0 hPa 56 % 3.2 km/h 0.0 mm
18.08.18, 12:20 21.7 °C 1022.9 hPa 56 % 5.0 km/h 0.0 mm
18.08.18, 12:15 21.3 °C 1022.9 hPa 57 % 1.8 km/h 0.0 mm
18.08.18, 12:10 21.3 °C 1023.0 hPa 57 % 10.1 km/h 0.0 mm
18.08.18, 12:05 21.3 °C 1023.0 hPa 57 % 5.0 km/h 0.0 mm
18.08.18, 11:55 21.0 °C 1023.1 hPa 57 % 3.2 km/h 0.0 mm
18.08.18, 11:50 20.8 °C 1023.1 hPa 58 % 3.2 km/h 0.0 mm
18.08.18, 11:45 20.9 °C 1023.0 hPa 58 % 1.8 km/h 0.0 mm
18.08.18, 11:40 20.6 °C 1023.0 hPa 58 % 1.8 km/h 0.0 mm
18.08.18, 11:35 20.6 °C 1023.0 hPa 60 % 5.0 km/h 0.0 mm
18.08.18, 11:30 20.6 °C 1023.0 hPa 60 % 1.8 km/h 0.0 mm
18.08.18, 11:25 20.4 °C 1023.1 hPa 61 % 1.8 km/h 0.0 mm
18.08.18, 11:20 20.4 °C 1023.1 hPa 61 % 1.8 km/h 0.0 mm
18.08.18, 11:15 20.4 °C 1023.3 hPa 61 % 3.2 km/h 0.0 mm
18.08.18, 11:10 20.3 °C 1023.2 hPa 61 % 6.8 km/h 0.0 mm
18.08.18, 11:05 20.3 °C 1023.3 hPa 66 % 3.2 km/h 0.0 mm